This is the latest recevied weather packets stored in our database for station/object W1ERB-13. If no packets are shown the sender has not sent any weather packets the latest 10 day(s).
| Time | Temp. | Humidity | Pressure | Rain* | Wind** | Luminosity | Snow |
|---|---|---|---|---|---|---|---|
| 1778071360 | 16.67° C | 81% | 1009.8 hPa | 0 mm | - | 216 W/m² | - |
| 1778071057 | 16.67° C | 82% | 1009.9 hPa | 0 mm | - | 245 W/m² | - |
| 1778070756 | 16.67° C | 82% | 1010.1 hPa | 0 mm | - | 241 W/m² | - |
| 1778070452 | 16.11° C | 82% | 1010.1 hPa | 0 mm | - | 252 W/m² | - |
| 1778070150 | 16.11° C | 83% | 1009.7 hPa | 0 mm | - | 267 W/m² | - |
| 1778069848 | 15.56° C | 84% | 1009.9 hPa | 0 mm | - | 270 W/m² | - |
| 1778069544 | 15.56° C | 84% | 1009.8 hPa | 0 mm | - | 137 W/m² | - |
| 1778069242 | 16.11° C | 83% | 1009.8 hPa | 0 mm | - | 184 W/m² | - |
| 1778068939 | 15.56° C | 84% | 1010 hPa | 0 mm | - | 175 W/m² | - |
| 1778068637 | 15.56° C | 85% | 1009.9 hPa | 0 mm | - | 159 W/m² | - |
| 1778068335 | 15° C | 87% | 1009.9 hPa | 0 mm | - | 264 W/m² | - |
| 1778068032 | 15° C | 87% | 1009.7 hPa | 0 mm | - | 84 W/m² | - |
| 1778067730 | 15° C | 86% | 1009.8 hPa | 0 mm | - | 97 W/m² | - |
| 1778067428 | 15° C | 86% | 1009.7 hPa | 0 mm | - | 150 W/m² | - |
| 1778067126 | 15° C | 87% | 1009.7 hPa | 0 mm | - | 231 W/m² | - |
| 1778066821 | 14.44° C | 88% | 1009.7 hPa | 0 mm | - | 112 W/m² | - |
| 1778066519 | 15° C | 87% | 1009.7 hPa | 0 mm | - | 78 W/m² | - |
| 1778066216 | 15° C | 87% | 1009.9 hPa | 0 mm | - | 78 W/m² | - |
| 1778065914 | 15° C | 87% | 1010.2 hPa | 0 mm | - | 138 W/m² | - |
| 1778065611 | 15° C | 87% | 1010.1 hPa | 0 mm | - | 87 W/m² | - |
| 1778065309 | 14.44° C | 88% | 1010 hPa | 0 mm | - | 85 W/m² | - |
| 1778065005 | 14.44° C | 88% | 1009.9 hPa | 0 mm | - | 72 W/m² | - |
| 1778064702 | 14.44° C | 88% | 1010.1 hPa | 0 mm | - | 72 W/m² | - |
| 1778064400 | 14.44° C | 88% | 1009.8 hPa | 0 mm | - | 58 W/m² | - |
| 1778064098 | 14.44° C | 88% | 1009.9 hPa | 0 mm | - | 55 W/m² | - |
* Rain latest hour (hover to see other rain measurements)
** Current wind speed in m/s (hover to see current wind gust speed)